JA3VQW-13 Weather Reports


Display with metric or nautical units.
time (UTC)temp
F
wind
direction
speed
MPH
gust
MPH
rain 1hr
in
rain 24hr
in
rain mn
in
humidity
%
barometer
mb
20260504141129 57 315 2.0 3.0 0.00 1.92 1.29 42 1007.0
20260504140616 57 270 0.0 2.0 0.00 1.92 1.29 41 1007.0
20260504130616 58 270 0.0 5.0 0.00 2.29 1.29 39 1006.0
20260504110618 60 310 6.0 6.0 0.00 2.41 1.29 36 1004.0
20260504081132 63 270 0.0 2.0 0.00 2.79 1.29 39 1001.0
20260504080617 63 225 0.0 2.0 0.00 2.79 1.29 38 1000.0
20260504050617 71 257 6.0 8.0 0.00 2.83 1.29 24 997.0
20260504045633 71 282 7.0 8.0 0.00 2.83 1.29 24 997.0
20260504043617 70 291 6.0 10.0 0.00 2.83 1.29 25 997.0
20260504042631 70 263 6.0 15.0 0.00 2.83 1.29 25 997.0
20260504041130 70 204 7.0 8.0 0.00 2.83 1.29 26 997.0
20260504040618 69 245 6.0 7.0 0.00 2.83 1.29 26 997.0
20260504035631 69 251 5.0 8.0 0.00 2.83 1.29 27 997.0
20260504034132 69 206 3.0 6.0 0.00 2.83 1.29 27 997.0
20260504033617 68 183 3.0 6.0 0.00 2.83 1.29 27 997.0
20260504032631 69 162 5.0 8.0 0.00 2.83 1.29 26 997.0
20260504031132 71 191 6.0 8.0 0.00 2.83 1.29 25 996.0
20260504030617 70 279 9.0 15.0 0.00 2.83 1.29 24 997.0
20260504025632 70 209 6.0 8.0 0.00 2.83 1.29 25 997.0
20260504024132 70 242 3.0 9.0 0.00 2.83 1.29 27 996.0
20260504023616 70 184 3.0 3.0 0.00 2.83 1.29 27 996.0
20260504022631 70 193 5.0 6.0 0.00 2.83 1.29 28 996.0
20260504021132 70 191 5.0 6.0 0.00 2.83 1.29 28 996.0
20260504020617 70 195 3.0 6.0 0.00 2.83 1.29 29 996.0
20260504015632 70 91 6.0 9.0 0.00 2.83 1.29 28 996.0
20260504014132 70 275 5.0 6.0 0.00 2.83 1.29 32 996.0
20260504013617 69 198 3.0 6.0 0.00 2.83 1.29 32 996.0
20260504012632 69 291 5.0 8.0 0.00 2.83 1.29 33 996.0
20260504011132 69 253 3.0 8.0 0.00 2.83 1.29 35 996.0
20260504010616 69 234 3.0 3.0 0.00 2.83 1.29 35 996.0
20260504005631 69 193 5.0 6.0 0.00 2.83 1.29 34 996.0
20260504004131 68 212 2.0 3.0 0.00 2.83 1.29 36 996.0
20260504003617 68 241 3.0 5.0 0.00 2.83 1.29 35 996.0
20260504002630 67 251 5.0 3.0 0.00 2.83 1.29 36 996.0
20260504001132 67 282 3.0 6.0 0.00 2.83 1.29 39 996.0
20260504000617 67 274 5.0 6.0 0.00 2.83 1.29 41 996.0
20260503235632 67 249 3.0 6.0 0.00 2.83 1.29 41 996.0
20260503234131 67 154 3.0 5.0 0.00 2.83 1.29 41 996.0
20260503233616 67 184 3.0 6.0 0.00 2.83 1.29 43 995.0
20260503232631 66 222 5.0 5.0 0.00 2.83 1.29 44 995.0
20260503231131 65 196 2.0 5.0 0.00 2.83 1.29 45 996.0
20260503230616 65 180 3.0 6.0 0.00 2.83 1.29 45 996.0
20260503225631 65 244 2.0 5.0 0.00 2.83 1.29 47 996.0
20260503224132 64 152 2.0 2.0 0.00 2.83 1.29 49 995.0
20260503223617 64 180 2.0 5.0 0.00 2.83 1.29 50 995.0
20260503222632 64 180 1.0 3.0 0.00 2.83 1.29 53 995.0
20260503221131 64 255 0.0 3.0 0.00 2.83 1.29 56 995.0
20260503220616 63 210 2.0 3.0 0.00 2.83 1.29 56 995.0
20260503215630 63 264 0.0 3.0 0.00 2.83 1.29 57 995.0
20260503214130 63 180 0.0 3.0 0.00 2.83 1.29 58 994.0
20260503213617 63 193 2.0 3.0 0.00 2.83 1.29 57 994.0
20260503212630 63 226 2.0 3.0 0.00 2.83 1.29 56 994.0
20260503211130 63 212 2.0 2.0 0.00 2.83 1.29 54 994.0
20260503210617 63 220 2.0 5.0 0.00 2.83 1.29 55 994.0
20260503205631 62 196 3.0 3.0 0.00 2.83 1.29 59 994.0
20260503204132 62 169 2.0 5.0 0.00 2.83 1.29 68 994.0
20260503203617 62 213 3.0 5.0 0.00 2.83 1.29 70 994.0
20260503202631 62 207 2.0 3.0 0.00 2.83 1.29 80 994.0
20260503201131 63 163 3.0 5.0 0.04 2.83 1.29 86 993.0
20260503200616 63 198 2.0 6.0 0.04 2.83 1.29 87 993.0
20260503195631 63 168 2.0 3.0 0.04 2.83 1.29 90 993.0
20260503194131 63 151 2.0 3.0 0.12 2.83 1.29 93 993.0
20260503193617 63 183 2.0 5.0 0.21 2.83 1.29 93 993.0
20260503192630 63 210 2.0 5.0 0.29 2.83 1.29 95 993.0
20260503191129 63 165 2.0 3.0 0.29 2.79 1.25 96 993.0
20260503190617 63 215 3.0 6.0 0.29 2.79 1.25 96 993.0
20260503185629 63 205 5.0 6.0 0.46 2.79 1.25 97 993.0
20260503184131 64 230 2.0 3.0 0.55 2.70 1.17 97 993.0
20260503183616 64 226 2.0 3.0 0.54 2.61 1.08 97 993.0
20260503182630 64 232 2.0 3.0 0.58 2.54 1.00 98 993.0
20260503181131 64 288 2.0 5.0 0.71 2.50 0.96 98 993.0
20260503180616 65 249 2.0 2.0 0.75 2.50 0.96 98 992.0
20260503175631 65 180 0.0 3.0 0.75 2.32 0.79 98 992.0
20260503174130 66 214 2.0 3.0 0.58 2.15 0.62 98 992.0
20260503173616 66 189 3.0 6.0 0.50 2.07 0.54 98 992.0
20260503172630 66 181 3.0 3.0 0.38 1.95 0.42 98 992.0
20260503171130 67 149 2.0 3.0 0.21 1.78 0.25 98 992.0
20260503170615 68 203 2.0 3.0 0.17 1.74 0.21 98 991.0
20260503150617 67 270 0.0 0.0 0.00 1.54 0.00 98 991.0